Regional Weather Roundup
Issued by NWS

Home | Current Version | Previous Version | Text Only | Print | Product List | Glossary On
Versions: 1 2 3 4 5 6 7 8 9 10 11 12 13 14 15 16 17 18 19 20 21 22 23 24 25 26 27 28 29 30 31 32 33 34 35 36 37 38 39 40 41 42 43 44 45 46 47 48 49 50
000
ASUS44 KEWX 230311
RWRTX
SOUTH TEXAS REGIONAL WEATHER ROUNDUP
NATIONAL WEATHER SERVICE AUSTIN/SAN ANTONIO TX
900 PM CST WED FEB 22 2017

NOTE: "FAIR" INDICATED FEW OR NO CLOUDS BELOW 12,000 FEET WITH NO
SIGNIFICANT WEATHER AND/OR OBSTRUCTIONS TO VISIBILITY.

* - THESE STATIONS ARE NOT NWS OR FAA STATIONS...AND ARE NOT SUBJECT
    TO NWS AND FAA QUALITY CONTROL.

TXZ171-172-183>190-230400-
TEXAS HILL COUNTRY AND EDWARDS PLATEAU

CITY           SKY/WX    TMP DP  RH WIND       PRES   REMARKS
JUNCTION       CLEAR     59  46  62 W3        29.81S
*LLANO         CLEAR     63  52  67 CALM      29.81S
BURNET         CLEAR     63  48  58 CALM      29.80F
*HORSESHOE BAY   N/A     62  51  66 S5        29.78F
*KERRVILLE     CLEAR     59  48  67 N5        29.83S
*FREDERICKSBRG CLEAR     58  46  66 NW3       29.82S
*ROCKSPRINGS   CLEAR     66  37  34 CALM      29.87S
*BOERNE STAGE  CLEAR     59  45  58 CALM      29.82S
*CASTROVILLE   CLEAR     65  49  56 CALM      29.80S
HONDO          CLEAR     65  49  56 CALM      29.79S
*UVALDE        CLEAR     63  48  59 CALM      29.79F
DEL RIO        CLEAR     72  40  31 E6        29.76S
LAUGHLIN AFB   CLEAR     67  46  46 SE6       29.77S
CARRIZO SPRGS  CLEAR     63  45  51 S5        29.76F
*EAGLE PASS    CLEAR     70  39  32 E7        29.77S
$$

TXZ173-191>194-202-209-217>225-228-230400-
CENTRAL AND SOUTH CENTRAL TEXAS

CITY           SKY/WX    TMP DP  RH WIND       PRES   REMARKS
GEORGETOWN     NOT AVBL
AUSTIN/BERGSTM PTCLDY    56  49  77 CALM      29.77S
AUSTIN/MABRY   CLEAR     71  49  45 CALM      29.79S
*AUSTIN/EXEC   CLEAR     70  46  43 CALM      29.79R
*LAGO VISTA    CLEAR     74  46  36 CALM      29.80F
SAN MARCOS     CLEAR     66  46  48 SW3       29.79S
NEW BRAUNFELS  CLEAR     64  48  56 CALM      29.77S
RANDOLPH AFB   CLEAR     72  43  34 S7        29.78S
PT SAN ANTONIO CLEAR     63  46  52 CALM      29.76S
SAN ANTONIO    CLEAR     67  46  47 NW3       29.78F
STINSON FIELD  CLEAR     65  49  56 CALM      29.76S
*PLEASANTON    CLEAR     62  46  55 CALM      29.78S
*LA GRANGE     CLEAR     66  50  56 CALM      29.77S
*GIDDINGS      CLEAR     65  47  53 SE3       29.79S
*GONZALES      CLEAR     70  49  47 S5        29.77F
$$

TXZ163>164-176>182-195>201-210>213-226-227-235-230400-
SOUTHEAST TEXAS

CITY           SKY/WX    TMP DP  RH WIND       PRES   REMARKS
COLLEGE STN    CLEAR     68  46  45 SE5       29.79S
*BRYAN         CLEAR     63  46  55 SE5       29.80S
*CALDWELL      NOT AVBL
*CROCKETT      CLEAR     55  50  82 CALM      29.83S
*BRENHAM       CLEAR     69  47  46 CALM      29.81S
HUNTSVILLE     CLEAR     67  48  50 S5        29.80S
CONROE         CLEAR     56  53  90 CALM      29.81S
HOUSTON BUSH   CLEAR     68  52  56 S7        29.81R
HOUSTON HOBBY  CLEAR     64  48  56 S7        29.82R
*HOUSTON SW AP CLEAR     60  50  69 SE3       29.83S
PEARLAND       CLEAR     65  50  58 SE5       29.84R
HOUSTON HOOKS  CLEAR     62  49  62 CALM      29.81R
ELLINGTON FLD  CLEAR     64  50  59 S6        29.84
SUGAR LAND     CLEAR     62  52  69 S7        29.81S
*HOUSTON EXEC  MOCLDY    63  54  72 MISG      29.82S
*CLEVELAND MUN CLEAR     57  55  94 CALM      29.83S
*WHARTON       CLEAR     60  55  82 SE5       29.82F
*COLUMBUS      FAIR      65  52  63 S5        29.81S
*EAGLE LAKE    CLEAR     66  58  76 S7        29.81R
$$

TXZ214>216-236>238-230400-
THE UPPER TEXAS COAST

CITY           SKY/WX    TMP DP  RH WIND       PRES   REMARKS
*ORANGE        CLEAR     62  60  93 SW3       29.86S
PORT ARTHUR    CLEAR     60  57  89 S3        29.84R
GALVESTON        N/A     66  60  81 S8        29.84S
ANGLETON       CLEAR     62  52  69 S5        29.83S
*BAY CITY      CLEAR     61  57  87 CALM      29.82S
PALACIOS         N/A     62  57  83 S8        29.81S
$$

TXZ229>234-239>247-230400-
TEXAS COASTAL BEND AND RIO GRANDE PLAINS

CITY           SKY/WX    TMP DP  RH WIND       PRES   REMARKS
VICTORIA         N/A     60  54  80 S7        29.81R
*BEEVILLE      CLEAR     63  52  67 S6        29.80S
ROCKPORT       CLEAR     69  54  58 S8        29.80S
*PORT ARANSAS  CLEAR     67  62  82 SE8       29.80S
*PORT LAVACA   CLEAR     60  57  89 SE6       29.81S
*INGLESIDE     CLEAR     64  57  79 MISG      29.80S
CORPUS CHRISTI CLEAR     68  55  63 SE8       29.80S
CORPUS NAS     CLEAR     64  58  80 SE7       29.80S
*ROBSTOWN      CLEAR     64  52  64 CALM      29.81S
ALICE            N/A     62  47  57 SE6       29.79S
KINGSVILLE NAS CLEAR     63  52  67 E5        29.80S
COTULLA        CLEAR     74  41  30 SE6       29.77F
*FAITH RANCH   CLEAR     73  36  25 E9        29.77F
LAREDO         CLEAR     74  45  35 E6        29.78S
$$

TXZ248>255-230400-
DEEP SOUTH TEXAS

CITY           SKY/WX    TMP DP  RH WIND       PRES   REMARKS
BROWNSVILLE      N/A     63  58  83 SE6       29.82S
PORT ISABEL    CLEAR     64  61  90 SE7       29.80S
*SOUTH PADRE   NOT AVBL
HARLINGEN      CLEAR     63  53  70 S8        29.80S
*HEBBRONVILLE  CLEAR     69  39  33 S7        29.81S
MCALLEN        CLEAR     70  49  47 SE8       29.81R
*WESLACO       CLEAR     70  49  47 S7        29.80R
FALFURRIAS     CLEAR    N/A N/A N/A SE3       29.79F
EDINBURG       CLEAR     69  50  49 SE5       29.80S
*ZAPATA        CLEAR     65  46  51 CALM      29.78R
$$

TXZ213>215-236>238-242>244-246-247-251-254-255-230400-
CMAN STATIONS

STATION/POSITION TIME  TEMP    WIND        PRES    WAVE
                       AIR SEA DIR/SP/G            HT/PER
                 (UTC) (F)     (DEG/KT/KT) (MB)    (FT/S)
SABINE PASS      0248   63 69  200/  6/  8 1012.1
SEA RIM ST PARK  0200   65     200/  8/  9 1011.0
NORTH JETTY/GLS  0242   70 66  170/ 10/ 11   N/A
EAGLE POINT      0248   68 68  190/  6/  8 1010.1
MORGANS POINT    0248   67 67  170/  6/  9 1010.1
MISSION/ARANSAS  0200   72                 1009.0
PORT O`CONNOR    0248   67     140/  9/ 11 1009.0
PORT ARANSAS     0200   70 70  140/  8/  9 1009.3
MALAQUITE BEACH  0248   70 70  130/  9/ 10 1009.6
BAFFIN BAY       0248   70 72  120/  8/ 10 1009.2
PORT ISABEL      0242   72 71  170/  4/  7 1009.4
$$

GMZ080-GMZ150>470-230400-
OFFSHORE BUOY REPORTS

STATION/POSITION TIME  TEMP    WIND        PRES    WAVE
                       AIR SEA DIR/SP/G            HT/PER
                 (UTC) (F)     (DEG/KT/KT) (MB)    (FT/S)
20 E GALVESTON   0250   66 67  190/  8/  8 1010.5    1/ 5
90 E PT ARANSAS  0250   70 70  140/  6/  8 1010.5    1
35 NE PT MANSFLD 0250   75     140/ 12/ 14 1008.6    1/ 7
200 E PT ISABEL  0250   72 74  320/  6/  8 1011.5    2/ 4
$$



USA.gov is the U.S. government's official web portal to all federal, state and local government web resources and services.